Hourly Data Report for March 29, 2003

SHERBROOKE A
QUEBEC

45°26'00.000" N
71°41'00.000" W
241.40 m
7028124
71610
YSC

Download Data

Hourly Data (March 2003)
Hourly Data Report for March 29, 2003
TIME
LST
Temp Definition
°C
Dew Point Definition
°C
Rel Hum Definition
%
Precip. Amount Definition
mm

Wind Dir Definition
10's deg

Wind Spd Definition
km/h
Visibility Definition
km
Stn Press Definition
kPa
Hmdx Definition


Wind Chill Definition


Weather Definition


00:00 9.7 -0.8 48   15 15 15.0 98.83      
01:00 10.0 0.2 50   17 7 15.0 98.72      
02:00 9.6 0.6 53   18 7 15.0 98.65      
03:00 9.7 2.2 59   20 6 15.0 98.59      
04:00 10.4 4.3 66   22 6 15.0 98.53      
05:00 11.1 6.1 71   18 13 15.0 98.40      
06:00 11.3 6.8 74   18 19 15.0 98.37      
07:00 11.9 7.5 74   18 26 15.0 98.31      
08:00 13.5 8.5 72   19 26 24.1 98.23     Mostly Cloudy
09:00 14.0 8.3 68   18 28 24.1 98.18     Rain Showers
10:00 15.5 8.3 62   19 33 24.1 98.16     Mostly Cloudy
11:00 15.5 9.0 65   20 26 24.1 98.07     Mostly Cloudy
12:00 16.2 9.3 64   20 30 24.1 97.97     Mostly Cloudy
13:00 17.3 9.3 59   19 37 24.1 97.85     Mostly Cloudy
14:00 16.5 9.9 65   19 30 24.1 97.76     Rain Showers
15:00 11.1 10.5 96   28 30 4.8 97.89     Moderate Rain Showers, Fog
16:00 9.6 9.3 98   25 6 4.8 97.99     Rain, Fog
17:00 9.5 9.1 97   23 9 12.9 98.08     Rain
18:00 7.7 6.1 90   26 33 15.0 98.22     Rain
19:00 6.5 5.6 94   27 15 15.0 98.34     Rain
20:00 6.1 5.1 93   21 7 15.0 98.39     Rain
21:00 5.7 4.9 95   21 6 15.0 98.43      
22:00 5.7 4.3 91   24 13 15.0 98.43      
23:00 5.2 3.6 89   26 13 15.0 98.43      

Notes on Data Quality.

Legend

  • E = Estimated
  • M = Missing
  • NA = Not Available*
  • [empty] = Indicates an unobserved value
Date modified: